Погода в Житковичи

Погода в Житковичи : погода сейчас, прогноз погоды и архив. Всё, что Вы хотите узнать о погоде в Житковичи!

Хотите узнать прогноз погоды в Житковичи? Тогда Вам сюда: Погода в Житковичи

Поиск расширенной информации на нашем сайте:

Другие новости

Новости СМИ2

Главная страница сайта

Новости сайта

03.07.2017

Напоминаем, что на нашем специализированном сайте Метеоцентр.Азия вы можете получить высокодетализированные автоматические прогнозы погоды по пунктам России, СНГ и мира в авиационном формате (включающие направление и скорость ветра, видимость, явления погоды, количество и форму облачности, нижнюю и верхнюю границу облачности).


Погода в Житковичи - сегодня

Время (UTC), дата Ветер
(°,м/с) 
Видим.   Явления Облачность Т
(°С)
Тd
(°С)
f(%) Тe
(°С)
Pmin
(гПа)
dP
(гПа)
Po
(мм)
O2
(г/м3)
Тmin Tmax R s Состояние
почвы
18 12.11.18 140 (ЮВ) 10 км    9/9 600 м 
[Sc]
+2.1 +0.2 87 +1  1034.6  0.4  760  304    +4       
21 12.11.18 140 (ЮВ) 10 км    9/9 600 м 
[Sc]
+1.6 -0.9 83 1035.2  0.5  763  306           
00 13.11.18 140 (ЮВ) 10 км    9/9 600 м 
[Sc]
+1 -1.8 82 -1  1035.3  0.1  763  307           
03 13.11.18 120 (ЮВ) 10 км    9/9 600 м 
[Sc]
+1 -1.9 81 -1  1034.6  -0.6  763  307           
06 13.11.18 140 (ЮВ) 10 км    9/9 600 м 
[Sc]
+0.7 -2.6 79 -1  1034.8  0.2  763  307  +0.7         
09 13.11.18 180 (Ю) 4{11}  10 км    9/9 600 м 
[Sc]
+1.5 -2 78 -1  1033.9  0.9  762  306           
12 13.11.18 140 (ЮВ) 10 км    9/9 600 м 
[Sc]
+4 -0.9 70 +2  1032.2  -1.6  761  302           
15 13.11.18 120 (ЮВ) 10 км    9/9 600 м 
[Sc]
+3.4 -1.3 71 +1  1031.2  -1  761  303           
18 13.11.18 160 (Ю) 4{10}  10 км    9/9 300 м 
[Sc]
+2.7 -2.2 70 +1  1029.7  -1.5  759  303    +4.4       
21 13.11.18 150 (ЮВ) 10 км    9/9 300 м 
[Sc]
+1.2 -3 74 1027.5  -2.2  758  304           
00 14.11.18 160 (Ю) 10 км    9/9 300 м 
[Sc]
+1.6 -2.5 74 -1  1025.1  -2.4  756  303           
03 14.11.18 160 (Ю) 4000 м  слаб. ливневой дождь  10/9 600 м кучево-дожд., средняя 
[Cb cap|As op]
+0.7 +0.1 96 1023.2  -1.8  755  303         
06 14.11.18 140 (ЮВ) 4000 м  слаб. ливневой дождь  10/8 600 м кучево-дожд., средняя 
[Cb cap|As op]
+1.4 +0.6 94 +1  1021.6  -1.6  753  302  +0.7       
09 14.11.18 140 (ЮВ) 2000 м  слаб. ливневой дождь  10/9 600 м кучево-дожд., средняя 
[Cb cap|Ac und]
+3 +2.5 97 +4  1020.7  -0.8  753  300           
12 14.11.18 220 (ЮЗ) 2000 м    10/9 600 м кучево-дожд., средняя 
[Cb cap|Ac und]
+6.5 +6.1 97 +7  1020  -0.5  752  295           
15 14.11.18 290 (З) 4000 м  слаб. ливневой дождь  10/9 600 м кучево-дожд., средняя 
[Cb cap|Ac und]
+7 +5.9 93 +7  1020.9  0.9  753  295         
18 14.11.18 340 (С) 4000 м  слаб. ливневой дождь  10/8 600 м кучево-дожд., средняя 
[Cb cap|Ac und]
+5.8 +4.9 94 +6  1022.2  1.2  754  297    +7.3     
21 14.11.18 320 (СЗ) 4000 м  слаб. ливневой дождь  10/8 600 м кучево-дожд., средняя 
[Cb cap|Ac und]
+4.7 +4.2 97 +6  1023.7  1.5  755  298           
00 15.11.18 330 (СЗ) 4000 м  слаб. ливневой дождь  10/9 600 м кучево-дожд., средняя 
[Cb cap|Ac und]
+3.8 +3.1 95 +3  1024.4  0.6  756  300           
03 15.11.18 340 (С) 4000 м  слаб. ливневой дождь  10/8 600 м кучево-дожд., средняя 
[Cb cap|Ac und]
+1.1 +0.6 96 1025.9  1.3  757  304         
06 15.11.18 020 (С) 4000 м  слаб. ливневой снег  10/8 600 м кучево-дожд., средняя 
[Cb cap|Ac und]
+0.6 +0.1 96 -1  1027.3  1.4  758  305  +0.6       
09 15.11.18 030 (СВ) 4000 м  дымка{ливн. осадки}  10/6 600 м кучево-дожд., средняя 
[Cb cap|Ac und]
+0 -1.1 92 -2  1029.6  2.2  759  306           
12 15.11.18 060 (СВ) 10 км  дымка{ливн. осадки}  10/6 600 м средняя 
[Sc|Ac und]
+0.6 -1 89 -1  1031.1  1.4  760  306           
15 15.11.18 050 (СВ) 2000 м  слаб. ливневой снег  10/9 600 м кучево-дожд., средняя 
[Cb cap|Ac und]
+0.4 -0.2 96 1033.2  2.1  762  307      0.3     
18 15.11.18 040 (СВ) 2000 м  дымка{ливн. осадки}  9/9 600 м 
[Sc]
+0.6 +0.1 96 1035.6  2.4  764  307    +1  0.7     
Время (UTC), дата Ветер
(°,м/с) 
Видим.   Явления Облачность Т
(°С)
Тd
(°С)
f(%) Тe
(°С)
Pmin
(гПа)
dP
(гПа)
Po
(мм)
O2
(г/м3)
Тmin Tmax R s Состояние
почвы

Для получения пояснительной информации подведите курсор к названию столбца.

ПОГОДА в Житковичи - архив

Всё, что Вы хотите узнать о погоде в Житковичи - удобно и подробно!

Выберите нужную дату (начиная с 1 января 2015* года) и нажмите кнопку "Найти".
Будут отображены архивные сводки погоды по пункту Житковичи, начиная с указанной даты.


Отображать данные в формате CSV (для использования в таблицах Excel)


Внимание! Наш архив погоды предназначен исключительно для личного некоммерческого использования в познавательных целях. Если Вам необходимы официальные справки о состоянии погоды (для производственных, юридических, коммерческих и т.п. целей), обращайтесь в органы Росгидромета.

*Примечание: данная дата относится к архиву по метеостанциям СССР (Россия, СНГ, Балтия).
Архив по метеостанциям Зарубежной Европы и Азии (кроме Китая) хранится 10 дней, по другим регионам земного шара (Китай, Африка, Америка, Австралия, Океания) - 1 день.

Житковичи - район местоположения метеостанции


Название, широта, долгота, высота метеостанции:
Житковичи 52.2°ш. 27.9°д. 137 м над ур. моря [Беларусь]

Дополнительная информация

В oтличие oт бoльшинства пoгoдных сайтoв мы публикуем пoдрoбную метеoинфoрмацию в детальнoм прoфессиoнальнoм фoрмате.

Характеристики температуры и влажнoсти вoздуха измеряются на высoте 2 м в тени вдали oт зданий и деревьев.
Скoрoсть ветра измеряется на высoте 10 м (на урoвне рoста челoвека скoрoсть ветра ниже в 1.5-2 раза). Если метеoстанция нахoдится в гoрoде или в лесу, тo скoрoсть ветра занижена на 2-4 м/с пo сравнению с oткрытым местoм. Скoрoсть ветра над акватoриями крупных рек и oзёр, а также на вершинах хoлмoв на 2-5 м/с выше, чем в oбычных услoвиях.
Атмoсфернoе давление в разных тoчках местнoсти мoжет значительнo oтличаться oт давления на метеoстанции, в зависимoсти oт услoвий рельефа (при пoдъёме на 10 м давление пoнижается примернo на 1 мм рт.ст.).